Weather in Bor

Serbia     44°04′26″N   22°05′56″E
temp.,
°C
wind,
m/s
gust,
m/s
humid.,
%
clouds,
%
prec.,
mm/h
press.,
hPa
HPBL,
m
22 april, thu
thu2223:00+6w22791 0.0 102021
02:00+6w22800 0.0 102017
05:00+5w22815 0.0 102014
08:00+11ssw226329 0.0 1020223
11:00+15s3447100 0.0 10191386
14:00+16ssw4540100 0.0 10181736
17:00+15ssw454599 0.0 10171325
20:00+9wnw2264100 0.0 101817
23 april, fri
fri2323:00+9w2267100 0.0 101939
02:00+8w2274100 0.0 101947
05:00+8w2488100 0.1 1019112
08:00+9wnw3582100 0.2 1021581
11:00+12wnw46504 0.0 10221144
14:00+13wnw68430 0.0 10221541
17:00+12nw57463 0.0 10221438
20:00+7w226741 0.0 102437
24 april, sat
sat2423:00+5w2276100 0.0 102528
02:00+4w227956 0.0 102427
05:00+3w227822 0.0 102437
08:00+8wnw265298 0.0 1024769
11:00+12n343943 0.0 10231538
14:00+14nne3339100 0.0 10211873
17:00+14e224570 0.0 10191424
20:00+7n227532 0.0 102120
25 april, sun
sun2523:00+6nw22743 0.0 102221
02:00+5nw22763 0.0 102116
05:00+5nw21782 0.0 102112
08:00+9ese116335 0.0 1021324
11:00+13se325433 0.0 10201340
14:00+15se335185 0.0 10181536
17:00+15se015295 0.0 10171159
20:00+8nw33680 0.0 101933
26 april, mon
mon2623:00+6wnw22720 0.0 102123
02:00+6wnw22730 0.0 102016
05:00+5wnw22771 0.0 102013
08:00+11s01604 0.0 1019277
11:00+15sse3249100 0.0 10181311
14:00+17se3345100 0.0 10151516
17:00+16se2453100 0.0 1013805
20:00+11n1170100 0.0 101413